Copper Mountain, CO

3:34 AM MDT on October 24, 2017 (GMT -0600)
Copper Mountain

Weather History for KCCU - January, 2014

Change the Weather History Date:

Monday, January 6, 2014

  Actual Average Record
Temperature  
Mean Temperature 6 °F -  
Max Temperature 17 °F - 33 °F (2015)
Min Temperature -5 °F - -8 °F (2017)
Degree Days  
Heating Degree Days 59    
Month to date heating degree days  
Cooling Degree Days 0    
Month to date cooling degree days  
Moisture  
Dew Point -3 °F    
Average Humidity 64    
Maximum Humidity 73    
Minimum Humidity 42    
Precipitation  
Precipitation 0.00 in - 0.05 in (2002)
Sea Level Pressure  
Sea Level Pressure 30.15 in    
Wind  
Wind Speed 24 mph (WSW)    
Max Wind Speed 44 mph    
Max Gust Speed 121 mph    
Visibility 9 miles    
Events Snow    
T = Trace of Precipitation, MM = Missing Value Source: NWS Daily Summary

Daily Weather History Graph

Daily Weather History Graph

Search for Another Location

Airport or City:

Trip Planner

Search our weather history database for the weather conditions in past years. The results will help you decide how hot, cold, wet, or windy it might be!

Date:

Astronomy

Jan. 06, 2014 Rise Set
Actual Time 7:25 AM MST 4:56 PM MST
Civil Twilight 6:55 AM MST 5:26 PM MST
Nautical Twilight 6:21 AM MST 5:59 PM MST
Astronomical Twilight 5:49 AM MST 6:32 PM MST
Moon 10:43 AM MST (1/6) 11:30 PM MST (1/6)
Length of Visible Light 10h 30m
Length of Day
9h 31m
Waxing Crescent, 35% of the Moon is Illuminated
Jan 6
Waxing Crescent
Jan 7
First Quarter
Jan 15
Full
Jan 23
Last Quarter
Jan 30
New

Hourly Weather History & Observations

Time (MST) Temp. Windchill Dew Point Humidity Pressure Visibility Wind Dir Wind Speed Gust Speed Precip Events Conditions
12:15 AM -5.8 °F -35.2 °F -13.0 °F 71% 29.91 in 2.5 mi West 34.5 mph 50.6 mph N/A Snow Light Snow
12:35 AM -4.0 °F -32.4 °F -13.0 °F 65% 29.91 in 1.5 mi West 33.4 mph 52.9 mph N/A Snow Light Snow
12:55 AM -4.0 °F -33.8 °F -13.0 °F 65% 29.91 in 1.5 mi West 38.0 mph 48.3 mph N/A Snow Light Snow
1:15 AM -4.0 °F -35.3 °F -13.0 °F 65% 29.90 in 1.2 mi West 43.7 mph 51.8 mph N/A Snow Light Snow
1:35 AM -4.0 °F -34.1 °F -13.0 °F 65% 29.93 in 1.2 mi West 39.1 mph 55.2 mph N/A Snow Light Snow
1:55 AM -4.0 °F -34.7 °F -13.0 °F 65% 29.94 in 1.8 mi West 41.4 mph 52.9 mph N/A Snow Light Snow
2:15 AM -4.0 °F -32.0 °F -11.2 °F 71% 29.98 in 7.0 mi West 32.2 mph 44.9 mph N/A   Clear
2:35 AM -4.0 °F -30.4 °F -11.2 °F 71% 30.00 in 7.0 mi West 27.6 mph 42.6 mph N/A   Clear
2:55 AM -4.0 °F -32.0 °F -11.2 °F 71% 30.01 in 5.0 mi West 32.2 mph 41.4 mph N/A   Haze
3:15 AM -4.0 °F -30.9 °F -11.2 °F 71% 30.02 in 10.0 mi West 28.8 mph 34.5 mph N/A   Clear
3:35 AM -4.0 °F -32.4 °F -11.2 °F 71% 30.02 in 10.0 mi West 33.4 mph 40.3 mph N/A   Clear
3:55 AM -4.0 °F -32.8 °F -11.2 °F 71% 30.02 in 10.0 mi West 34.5 mph 42.6 mph N/A   Clear
4:15 AM -2.2 °F -28.0 °F -11.2 °F 66% 30.03 in 10.0 mi West 27.6 mph 39.1 mph N/A   Clear
4:35 AM -0.4 °F -24.3 °F -9.4 °F 66% 30.04 in 10.0 mi West 24.2 mph 38.0 mph N/A   Clear
4:55 AM -0.4 °F -24.7 °F -7.6 °F 72% 30.05 in 10.0 mi West 25.3 mph 38.0 mph N/A   Clear
5:15 AM -0.4 °F -20.5 °F -7.6 °F 72% 30.07 in 10.0 mi WSW 16.1 mph 28.8 mph N/A   Clear
5:35 AM -0.4 °F -21.2 °F -7.6 °F 72% 30.08 in 10.0 mi West 17.3 mph 28.8 mph N/A   Clear
5:55 AM -0.4 °F -17.6 °F -7.6 °F 72% 30.10 in 10.0 mi WSW 11.5 mph 23.0 mph N/A   Clear
6:15 AM -0.4 °F -18.4 °F -7.6 °F 72% 30.10 in 10.0 mi WSW 12.7 mph 18.4 mph N/A   Clear
6:35 AM -0.4 °F -15.7 °F -7.6 °F 72% 30.12 in 10.0 mi WSW 9.2 mph 20.7 mph N/A   Clear
6:55 AM -0.4 °F -15.7 °F -7.6 °F 72% 30.12 in 10.0 mi SW 9.2 mph - N/A   Clear
7:15 AM -0.4 °F -18.4 °F -7.6 °F 72% 30.13 in 10.0 mi WSW 12.7 mph 17.3 mph N/A   Clear
7:35 AM -0.4 °F -19.2 °F -7.6 °F 72% 30.14 in 10.0 mi WSW 13.8 mph 18.4 mph N/A   Clear
7:55 AM -0.4 °F -19.2 °F -9.4 °F 66% 30.14 in 10.0 mi WSW 13.8 mph 20.7 mph N/A   Clear
8:15 AM -0.4 °F -22.3 °F -9.4 °F 66% 30.15 in 10.0 mi West 19.6 mph 32.2 mph N/A   Clear
8:35 AM -0.4 °F - -9.4 °F 66% 30.17 in 10.0 mi North - - N/A   Clear
8:55 AM 1.4 °F - -9.4 °F 61% 30.19 in 10.0 mi North - - N/A   Clear
9:15 AM 1.4 °F -17.6 °F -11.2 °F 56% 30.20 in 10.0 mi West 15.0 mph - N/A   Clear
9:35 AM 3.2 °F -14.6 °F -11.2 °F 51% 30.20 in 10.0 mi West 13.8 mph 27.6 mph N/A   Clear
9:55 AM 5.0 °F -16.7 °F -9.4 °F 52% 30.20 in 10.0 mi West 23.0 mph - N/A   Clear
10:15 AM 5.0 °F -15.7 °F -9.4 °F 52% 30.20 in 10.0 mi West 20.7 mph - N/A   Clear
10:35 AM 5.0 °F - -7.6 °F 56% 30.20 in 10.0 mi North - - N/A   Clear
10:55 AM 6.8 °F -10.0 °F -5.8 °F 56% 30.20 in 10.0 mi West 13.8 mph - N/A   Clear
11:15 AM 6.8 °F -11.8 °F -4.0 °F 61% 30.19 in 10.0 mi West 17.3 mph - N/A   Clear
11:35 AM 8.6 °F -7.7 °F -4.0 °F 57% 30.19 in 10.0 mi West 13.8 mph 18.4 mph N/A   Clear
11:55 AM 8.6 °F -3.7 °F -4.0 °F 57% 30.19 in 10.0 mi West 8.1 mph - N/A   Clear
12:15 PM 10.4 °F -2.4 °F -2.2 °F 57% 30.19 in 10.0 mi West 9.2 mph - N/A   Clear
12:35 PM 10.4 °F -4.1 °F -0.4 °F 62% 30.19 in 10.0 mi West 11.5 mph - N/A   Clear
12:55 PM 12.2 °F - -0.4 °F 57% 30.18 in 10.0 mi North - - N/A   Clear
1:15 PM 12.2 °F 0.7 °F -0.4 °F 57% 30.18 in 10.0 mi West 8.1 mph 16.1 mph N/A   Clear
1:35 PM 14.0 °F 2.9 °F 3.2 °F 62% 30.18 in 10.0 mi West 8.1 mph - N/A   Clear
1:55 PM 14.0 °F -3.4 °F 3.2 °F 62% 30.18 in 10.0 mi West 19.6 mph 23.0 mph N/A   Clear
2:15 PM 14.0 °F - 3.2 °F 62% 30.18 in 10.0 mi North - - N/A   Clear
2:35 PM 14.0 °F 6.5 °F 3.2 °F 62% 30.20 in 10.0 mi South 4.6 mph 17.3 mph N/A   Scattered Clouds
2:55 PM 14.0 °F 0.5 °F 3.2 °F 62% 30.19 in 10.0 mi West 11.5 mph 17.3 mph N/A   Mostly Cloudy
3:15 PM 14.0 °F -3.4 °F 5.0 °F 67% 30.20 in 10.0 mi West 19.6 mph - N/A   Scattered Clouds
3:35 PM 14.0 °F -2.5 °F 5.0 °F 67% 30.20 in 10.0 mi West 17.3 mph 27.6 mph N/A   Clear
3:55 PM 14.0 °F -3.0 °F 5.0 °F 67% 30.20 in 10.0 mi West 18.4 mph - N/A   Scattered Clouds
4:15 PM 12.2 °F -3.7 °F 3.2 °F 67% 30.21 in 10.0 mi West 15.0 mph - N/A   Scattered Clouds
4:35 PM 10.4 °F - 3.2 °F 73% 30.21 in 10.0 mi North - - N/A   Scattered Clouds
4:55 PM 10.4 °F -6.6 °F 3.2 °F 73% 30.21 in 10.0 mi West 16.1 mph - N/A   Scattered Clouds
5:15 PM 10.4 °F -4.1 °F 1.4 °F 67% 30.21 in 10.0 mi WSW 11.5 mph 18.4 mph N/A   Clear
5:35 PM 12.2 °F -1.8 °F 5.0 °F 73% 30.21 in 10.0 mi WSW 11.5 mph - N/A   Clear
5:55 PM 10.4 °F - 3.2 °F 73% 30.21 in 10.0 mi North - - N/A   Clear
6:15 PM 12.2 °F - 5.0 °F 73% 30.21 in 10.0 mi North - - N/A   Clear
6:35 PM 12.2 °F - 3.2 °F 67% 30.22 in 10.0 mi North - - N/A   Clear
6:55 PM 10.4 °F -5.4 °F 1.4 °F 67% 30.22 in 10.0 mi West 13.8 mph - N/A   Clear
7:15 PM 12.2 °F - 3.2 °F 67% 30.22 in 10.0 mi North - - N/A   Clear
7:35 PM 12.2 °F 0.7 °F 3.2 °F 67% 30.23 in 10.0 mi SSW 8.1 mph - N/A   Clear
7:55 PM 14.0 °F - 5.0 °F 67% 30.24 in 10.0 mi North - - N/A   Clear
8:15 PM 14.0 °F -2.0 °F 5.0 °F 67% 30.24 in 10.0 mi WSW 16.1 mph - N/A   Clear
8:35 PM 14.0 °F 0.5 °F 5.0 °F 67% 30.25 in 10.0 mi WSW 11.5 mph - N/A   Clear
8:55 PM 14.0 °F -2.5 °F 5.0 °F 67% 30.24 in 10.0 mi WSW 17.3 mph 120.8 mph N/A   Clear
9:15 PM 14.0 °F -0.2 °F 3.2 °F 62% 30.24 in 10.0 mi WSW 12.7 mph 24.2 mph N/A   Clear
9:35 PM 14.0 °F -1.4 °F 3.2 °F 62% 30.24 in 10.0 mi WSW 15.0 mph 23.0 mph N/A   Clear
9:55 PM 14.0 °F -2.0 °F 3.2 °F 62% 30.24 in 10.0 mi WSW 16.1 mph 23.0 mph N/A   Clear
10:15 PM 15.8 °F 2.1 °F 3.2 °F 58% 30.24 in 10.0 mi WSW 12.7 mph 20.7 mph N/A   Clear
10:35 PM 17.6 °F 6.4 °F 3.2 °F 53% 30.25 in 10.0 mi SW 9.2 mph - N/A   Clear
10:55 PM 17.6 °F 3.7 °F 1.4 °F 49% 30.24 in 10.0 mi SW 13.8 mph 21.9 mph N/A   Clear
11:15 PM 17.6 °F 2.2 °F -0.4 °F 45% 30.23 in 10.0 mi WSW 17.3 mph 24.2 mph N/A   Clear
11:35 PM 17.6 °F 5.0 °F -0.4 °F 45% 30.24 in 10.0 mi WSW 11.5 mph 19.6 mph N/A   Clear
11:55 PM 17.6 °F 3.2 °F -2.2 °F 42% 30.23 in 10.0 mi WSW 15.0 mph 25.3 mph N/A   Clear